Theta_e
304 304 304 303 303 304 304 306 307 308 307 307 307 307 308 308 308 308 308 306 305 304 303 304 302 296 290 289 290 289 290 290 290 290 290 290 290 290 290 289 289 289 289 288 288 288 288 288 288 287 287 286 286 286 285 285 285 284 283 283 282 282 281 281 281 281 282 282 282 282 281 281 281 281 280 280 280 280 279 279 279 279 279 279 280
304 304 304 303 302 303 304 305 306 306 305 305 306 306 307 307 307 307 305 303 303 302 301 302 300 293 289 289 289 289 289 289 289 289 290 290 290 289 289 289 289 289 289 288 288 288 288 288 288 287 287 286 286 286 286 285 285 284 283 283 282 282 281 281 280 280 281 282 282 281 281 280 280 280 280 279 280 279 279 279 279 279 279 279 280
303 304 303 302 302 302 302 303 304 303 304 304 305 306 306 306 305 305 304 301 300 300 299 300 297 291 288 289 289 289 289 289 289 289 289 290 290 289 289 289 289 289 289 289 288 288 288 287 287 287 287 286 286 286 286 285 285 284 283 283 282 281 281 280 280 280 280 280 281 281 280 280 280 280 279 279 279 279 279 279 278 278 278 278 279
302 302 302 301 301 301 300 301 302 302 302 302 304 305 305 305 304 303 302 299 298 297 296 296 294 290 288 288 288 288 288 288 288 289 289 289 289 289 289 289 289 289 288 288 288 288 288 288 287 287 286 286 286 286 286 285 285 284 284 283 282 281 281 280 280 280 279 279 280 280 279 279 279 279 279 279 279 278 278 278 278 278 278 278 278
301 300 300 300 299 300 300 300 301 301 301 301 302 303 303 303 302 301 299 297 295 294 293 292 291 288 288 288 288 288 288 288 288 288 288 289 289 289 289 289 288 288 288 288 288 288 288 287 287 287 287 287 286 286 286 286 285 285 284 283 282 281 281 280 279 279 279 278 279 279 279 278 279 279 279 278 278 278 278 278 278 277 277 278 277
300 299 299 298 298 298 298 299 300 300 300 300 301 301 300 299 299 298 297 295 293 292 291 289 288 288 288 288 288 288 288 288 288 288 288 288 288 288 288 288 288 288 287 287 287 287 287 287 287 287 287 287 287 287 286 286 285 285 285 284 283 281 281 280 279 279 278 278 278 278 278 278 278 278 278 278 277 278 278 278 277 277 277 277 277
299 298 299 298 297 297 297 299 301 300 299 299 299 299 299 298 298 296 294 292 291 290 289 287 287 287 287 288 287 288 287 287 287 288 288 288 288 288 288 288 288 287 287 287 287 287 287 287 287 287 287 287 287 287 286 286 285 285 285 284 283 281 281 280 279 278 278 278 277 277 278 278 278 278 278 278 277 278 278 277 277 276 276 276 276
298 298 297 297 297 296 297 299 301 300 299 298 298 297 297 296 295 294 292 289 288 288 288 287 287 287 287 287 287 287 287 287 287 287 288 288 288 288 288 288 287 287 287 287 287 287 287 287 287 287 287 287 287 287 286 286 285 285 285 284 283 282 281 280 279 279 278 277 277 277 277 277 277 278 278 277 277 278 277 277 276 276 276 276 276
297 297 297 297 296 296 296 298 300 299 297 296 296 295 295 294 292 290 289 288 287 287 287 287 286 286 286 286 287 287 287 287 287 287 287 287 288 288 288 287 287 287 287 287 287 287 287 287 287 287 287 287 287 287 286 286 285 285 285 284 283 282 281 280 279 279 278 277 277 277 277 277 278 278 278 278 278 278 277 276 276 276 276 276 276
296 296 296 296 296 295 295 296 298 298 296 294 294 293 292 291 289 288 287 286 286 286 286 286 286 286 286 286 286 286 286 286 287 287 287 287 288 288 287 287 287 287 287 287 287 287 287 287 287 287 287 287 287 286 286 286 285 285 285 284 284 283 281 280 280 280 279 278 278 277 276 277 279 279 278 279 279 278 277 276 276 276 276 276 277
295 295 295 295 295 295 294 295 295 297 296 294 292 291 290 289 288 287 286 285 285 285 285 285 285 285 285 285 285 285 286 286 286 286 287 287 288 288 288 287 287 287 287 287 287 287 287 287 287 287 287 287 287 286 286 286 286 285 285 284 284 283 281 280 280 280 279 279 278 278 277 278 280 280 279 279 278 277 277 276 275 275 276 276 277
294 294 294 294 294 294 294 293 293 294 294 292 290 289 288 287 286 286 285 285 284 284 285 285 285 285 285 285 285 285 285 286 286 286 286 287 287 287 288 287 287 287 287 287 287 287 287 287 287 287 287 287 287 286 286 286 286 285 285 284 284 283 282 281 281 281 280 279 279 278 278 279 280 280 280 279 279 277 277 276 275 275 276 277 277
294 293 293 293 293 293 293 292 291 291 291 290 289 288 287 287 286 286 286 285 285 284 285 285 284 284 284 284 284 285 285 285 285 286 286 286 287 287 288 287 287 287 287 287 287 287 287 287 286 287 287 287 286 286 286 286 286 285 285 284 283 283 282 282 282 282 281 280 279 279 280 280 280 281 281 280 279 277 276 276 275 275 276 276 276
292 292 292 292 292 292 291 291 290 289 289 289 288 288 287 286 286 286 285 284 284 284 284 284 284 284 284 284 284 284 285 285 285 285 286 286 287 287 287 287 286 287 287 287 288 287 287 286 286 287 287 287 286 286 286 286 286 285 285 284 283 283 282 281 281 282 281 281 280 281 282 281 280 281 281 279 278 277 277 276 275 275 276 276 276
291 292 291 291 291 291 290 290 289 289 288 288 287 287 286 285 285 285 285 284 284 284 284 284 284 284 284 284 284 284 284 285 285 285 285 286 287 287 287 287 287 288 288 288 287 287 287 286 286 286 286 287 287 286 286 286 286 285 285 284 284 283 282 281 281 281 281 281 281 281 282 281 280 280 280 279 278 277 276 276 275 275 275 275 275
291 291 291 291 291 290 290 289 289 288 288 287 286 285 285 285 285 284 284 283 283 283 283 283 283 283 283 283 283 284 284 284 284 284 285 286 287 287 287 287 288 288 288 288 287 287 286 286 286 286 286 286 286 286 286 285 285 285 284 284 284 283 283 282 281 281 281 281 281 281 281 280 279 279 278 278 277 277 276 275 275 274 275 275 274
290 290 290 290 290 290 290 289 289 288 287 287 286 285 285 285 284 284 284 283 283 283 283 283 283 283 283 283 283 284 284 284 284 285 287 287 286 286 286 287 287 288 288 287 287 287 286 286 285 285 285 285 285 285 285 284 284 283 283 283 283 282 283 283 282 281 281 281 280 280 280 279 278 278 278 278 277 277 276 275 274 274 274 274 274
290 290 290 290 290 289 289 289 289 288 288 287 287 286 286 285 285 284 284 284 283 283 283 283 283 283 283 283 283 283 283 284 285 287 288 287 286 285 286 287 287 287 287 287 286 286 286 285 284 284 284 284 284 283 283 282 282 282 282 281 281 281 282 282 282 282 281 280 280 280 279 279 279 278 278 278 278 278 277 276 275 274 274 274 273
290 290 290 290 289 289 289 289 289 289 288 288 287 286 286 285 285 285 284 284 284 283 283 283 282 282 282 282 282 282 283 285 287 289 288 286 285 285 285 286 286 285 285 285 285 285 285 284 283 283 283 283 282 281 281 280 280 280 280 280 279 280 281 282 281 281 280 280 280 280 279 279 278 278 277 277 278 278 278 277 276 275 274 274 273
290 290 290 289 289 289 289 289 289 289 289 288 287 286 286 286 285 285 284 283 283 283 283 282 282 282 282 282 283 284 286 288 289 289 288 286 285 285 285 285 285 284 284 284 284 284 283 283 283 283 283 282 282 281 281 281 280 280 280 279 279 280 281 281 280 280 280 279 279 279 279 279 278 277 276 276 276 277 277 277 277 276 275 274 273
289 289 289 289 289 289 289 289 289 289 289 288 287 286 286 286 285 284 284 283 283 283 283 282 282 282 283 284 286 288 289 289 289 287 286 285 284 284 284 284 283 283 283 283 283 282 282 282 282 282 282 282 282 282 281 281 281 280 280 280 280 281 281 281 280 280 280 279 279 278 278 278 277 277 276 276 275 276 276 276 276 276 275 274 273
289 289 289 288 288 288 288 288 288 288 288 287 287 286 285 285 285 284 284 283 283 283 283 283 283 284 286 287 288 289 289 288 287 286 285 285 284 284 283 283 282 282 282 282 282 282 282 282 282 281 281 281 281 281 281 281 281 281 281 281 281 281 281 280 280 280 279 279 278 277 277 277 276 276 276 276 276 276 276 276 275 275 275 275 274
289 288 288 288 288 288 288 287 288 288 287 287 286 286 285 285 285 284 284 284 284 284 285 285 286 286 287 287 288 288 288 287 286 286 285 284 283 282 281 281 281 281 281 281 281 281 281 281 281 281 281 281 281 281 281 281 281 281 281 281 281 281 281 281 281 280 280 279 278 277 277 276 275 275 275 276 276 275 275 276 275 275 274 274 274
288 288 287 287 287 287 287 287 287 287 287 286 286 286 285 285 285 285 286 286 286 286 286 286 286 286 286 286 286 286 286 285 284 283 282 282 281 280 280 280 280 280 280 281 281 280 280 280 280 280 280 280 280 280 280 280 280 281 281 281 281 281 281 281 281 280 280 279 278 278 277 277 276 275 275 275 275 274 275 275 275 274 273 273 273
288 287 287 286 286 286 286 286 286 286 286 286 286 286 286 286 286 286 287 287 287 287 286 286 286 285 285 285 284 283 283 282 281 281 280 280 280 280 280 280 280 280 279 279 279 280 280 280 280 280 280 280 280 280 280 280 280 280 280 280 280 280 280 280 279 279 279 279 278 278 278 277 276 276 275 275 274 274 274 274 273 273 272 272 273
287 286 286 286 285 285 285 285 285 285 285 286 287 288 288 288 288 288 287 287 286 286 285 284 284 283 283 282 282 281 280 280 280 280 280 280 280 280 280 280 280 279 279 279 279 279 279 279 279 279 279 278 278 278 278 278 278 278 278 279 279 279 279 279 279 278 278 278 278 278 277 277 276 275 275 274 274 273 273 272 272 272 272 272 271
286 286 285 285 285 285 285 285 285 285 286 287 288 289 289 288 288 287 286 285 284 284 283 282 282 281 281 281 281 280 280 280 280 280 280 280 280 280 280 280 280 279 279 279 279 278 278 278 277 277 277 276 276 276 276 276 276 276 276 277 277 277 278 278 278 278 277 277 277 277 277 276 276 275 275 274 273 273 273 272 272 272 272 271 269
287 286 286 286 285 285 286 286 286 286 287 287 287 286 286 285 285 285 284 284 283 283 282 282 282 282 281 281 280 280 280 280 280 280 280 280 280 280 280 279 279 279 279 278 278 278 277 277 276 276 276 276 276 276 276 276 276 275 275 275 275 275 276 276 276 276 276 276 276 276 276 275 275 275 274 273 273 272 272 272 271 271 271 269 267
287 286 286 286 286 286 287 287 287 286 285 284 284 283 283 283 283 283 283 282 282 282 282 282 282 282 281 281 281 280 280 280 280 280 280 280 279 279 279 278 278 278 277 277 277 277 277 277 276 276 276 276 276 276 276 276 275 275 275 274 274 274 274 275 275 275 275 275 275 275 274 274 274 273 273 272 272 272 271 271 270 270 269 267 266
287 286 287 287 286 286 286 285 285 284 283 282 282 281 281 281 281 282 282 281 281 281 281 282 282 281 281 281 281 280 280 280 279 279 279 278 278 278 277 277 277 277 277 277 277 277 277 277 277 276 276 276 275 275 274 274 274 274 274 273 273 273 273 273 273 273 273 273 273 273 273 272 272 272 271 271 271 270 270 270 269 269 268 266 266
287 285 285 286 285 285 285 284 283 283 282 282 282 281 280 280 280 280 281 281 281 281 281 281 281 281 281 281 280 279 279 279 278 278 277 277 277 277 277 277 277 278 278 278 278 277 277 277 276 275 275 274 274 273 273 272 272 272 272 272 272 272 271 271 271 271 271 271 271 271 271 271 271 271 270 270 270 269 269 269 268 268 267 266 266
287 285 284 285 284 284 284 283 282 282 281 281 281 281 280 279 279 279 279 280 280 280 280 280 280 279 279 279 279 278 278 277 277 277 277 277 277 277 277 278 277 277 278 278 278 277 276 275 275 274 273 273 272 271 271 270 270 270 270 269 269 269 269 269 269 269 269 269 269 270 270 270 270 270 269 269 268 268 267 267 267 267 266 265 265
288 286 285 284 284 284 284 283 283 282 282 282 282 282 282 281 279 278 278 278 278 278 278 278 278 278 278 277 277 277 277 277 277 277 276 276 276 276 276 277 276 276 276 276 276 275 275 274 273 272 271 271 270 269 269 268 268 268 267 267 266 266 266 266 266 266 266 267 267 268 268 268 268 268 268 268 267 267 266 266 266 266 265 265 265
289 287 286 286 285 285 285 284 284 284 283 283 283 283 283 282 281 279 278 277 277 277 277 277 277 277 277 276 276 276 276 276 276 275 275 275 275 275 275 275 275 274 274 274 274 274 273 272 272 271 270 269 268 267 267 266 266 265 265 265 265 264 264 264 264 264 264 264 265 265 266 266 266 266 266 267 266 266 266 265 265 265 265 264 264
288 288 287 287 287 286 286 286 285 285 284 284 284 283 283 282 281 280 279 278 277 276 275 275 275 275 275 275 274 274 274 274 274 274 274 274 274 273 273 273 273 273 273 272 272 272 271 271 270 269 268 267 266 266 265 264 264 264 264 264 264 263 263 263 263 263 263 263 263 264 264 264 264 264 265 265 265 265 265 265 264 264 264 264 264
287 287 286 286 286 286 285 285 285 284 284 283 283 282 281 280 280 280 279 278 277 276 274 274 274 273 273 273 273 272 272 272 272 272 272 272 272 272 272 272 271 271 271 271 270 269 269 268 268 267 266 266 265 264 264 264 264 264 263 263 263 263 263 262 261 261 262 262 262 263 263 263 263 263 263 263 263 264 264 264 263 263 264 264 263
287 286 285 285 285 284 284 283 283 282 282 282 281 280 280 279 279 278 278 277 277 276 274 274 273 273 272 272 272 271 271 270 271 271 271 271 271 271 270 270 269 269 269 268 268 267 267 266 266 265 265 264 264 264 264 263 263 263 263 263 263 262 262 261 261 261 262 262 262 262 262 262 263 262 262 262 262 263 263 263 263 263 263 263 262
285 285 284 284 283 283 282 282 281 280 280 280 279 279 279 278 277 277 276 276 275 275 274 273 272 272 272 271 271 270 270 270 270 270 269 269 269 269 268 268 268 267 267 266 266 266 266 265 265 264 264 264 264 263 263 263 263 263 263 263 263 263 262 261 261 261 261 261 262 262 262 262 262 262 262 262 262 262 262 262 262 262 262 262 261
284 283 283 282 282 282 281 281 280 279 279 278 278 278 278 277 276 276 275 275 274 273 273 272 271 271 270 270 270 270 269 269 269 269 268 268 267 267 267 267 266 266 266 265 265 265 265 265 264 264 264 264 263 263 263 263 263 263 262 262 262 262 262 262 261 261 261 261 261 261 261 261 261 261 261 261 261 261 261 261 261 261 261 261 261
282 281 281 280 280 280 280 279 279 278 278 278 277 277 277 276 276 275 275 274 273 272 271 271 270 269 269 269 269 269 269 269 268 268 267 267 267 266 266 266 266 265 265 265 265 265 264 264 264 264 263 263 263 263 263 262 262 262 262 262 262 262 262 262 261 261 260 260 260 260 261 261 261 261 261 261 261 261 261 261 261 261 261 261 261
281 280 279 279 279 278 278 278 278 277 277 277 276 276 276 275 275 274 273 273 272 271 270 270 269 268 267 267 267 268 268 267 267 267 266 266 266 266 265 265 265 265 264 264 264 264 264 264 263 263 263 263 263 263 262 262 262 262 262 262 262 262 262 262 261 261 260 260 260 260 260 260 260 261 261 261 260 260 260 261 261 261 261 261 260
279 279 278 277 277 278 277 277 276 276 276 275 275 274 274 274 273 272 272 271 271 270 270 269 268 267 267 266 266 266 267 266 266 266 266 265 265 265 265 265 265 264 264 264 264 264 264 264 263 263 263 263 263 262 262 262 262 261 261 261 261 262 262 262 261 261 261 260 260 260 260 260 260 260 260 260 260 260 260 260 260 260 260 260 260
278 278 277 277 276 277 277 276 275 274 274 274 273 273 272 272 272 271 271 271 270 270 269 268 267 267 266 266 266 266 266 265 265 265 265 265 265 265 264 264 264 264 264 264 264 264 264 264 263 263 263 263 262 262 262 262 261 261 261 261 261 261 262 262 261 261 261 261 261 260 260 260 260 260 260 260 260 260 260 260 260 260 260 260 259
277 277 276 276 275 275 275 274 273 273 273 272 272 271 271 271 271 270 270 269 269 268 268 267 267 266 266 266 265 265 265 265 265 265 265 264 264 264 264 264 264 264 264 263 263 263 263 263 263 263 263 262 262 262 262 262 261 261 261 261 261 261 261 261 261 261 261 261 261 261 260 260 260 260 260 260 260 260 260 260 260 259 259 259 259
276 276 275 274 274 273 273 272 272 272 272 271 271 270 270 269 269 269 268 268 268 267 267 266 266 265 265 265 264 264 264 264 264 264 264 264 264 264 264 264 264 264 263 263 263 263 263 263 263 263 263 262 262 262 262 261 261 261 261 261 261 261 261 261 261 260 260 261 261 261 260 260 260 260 260 260 260 260 259 259 259 259 258 258 258
274 274 274 273 273 272 271 271 271 271 270 270 269 269 268 268 268 268 267 267 267 266 266 265 265 264 264 264 264 264 264 264 264 264 264 264 264 264 264 264 264 264 263 263 263 263 263 263 263 263 263 262 262 262 261 261 261 261 261 260 261 261 261 261 260 260 260 260 261 260 260 260 260 260 260 260 260 259 259 259 259 258 258 258 258
273 273 272 272 272 271 270 270 269 269 268 268 268 268 267 267 267 267 266 266 265 265 264 264 264 264 264 263 263 263 263 264 264 264 264 264 264 264 263 263 263 263 263 263 263 263 262 262 262 262 262 262 262 262 261 261 261 261 261 261 260 260 260 260 260 260 260 260 260 260 260 260 260 260 260 259 259 259 259 259 259 258 258 258 258
271 271 271 270 270 270 269 269 268 268 267 267 267 267 267 266 266 266 265 265 264 264 264 264 263 263 263 263 263 263 263 263 263 263 264 264 263 263 263 263 263 263 263 263 263 262 262 262 262 262 262 262 262 262 262 262 262 262 262 261 261 261 260 260 260 260 259 259 259 260 260 260 260 259 259 259 259 259 259 258 258 258 258 258 257
269 269 269 269 268 268 268 267 267 267 267 267 266 266 266 265 265 265 264 264 264 263 263 263 263 263 263 263 263 263 263 263 263 264 263 263 263 263 263 263 263 263 263 263 262 262 262 262 262 262 262 263 263 263 263 263 263 263 262 262 262 262 261 261 260 260 259 259 259 259 259 259 259 259 259 259 258 258 258 258 258 257 257 257 257
268 268 268 267 267 267 267 266 266 266 266 266 266 265 265 265 264 264 263 263 263 263 263 263 263 263 263 263 263 263 263 263 263 263 263 263 263 263 263 263 263 262 262 262 262 262 262 262 263 263 263 263 263 263 263 263 263 263 263 263 262 262 262 262 261 261 260 259 259 258 258 258 258 258 258 258 258 258 258 258 257 257 257 257 257
267 267 267 266 266 266 266 266 266 265 265 265 265 264 264 264 263 263 263 263 263 263 263 263 263 263 263 263 263 263 263 263 263 263 263 263 263 262 262 262 262 262 262 262 262 262 263 263 263 263 263 263 263 263 263 262 262 262 262 262 262 262 262 262 262 261 261 260 259 258 258 258 258 258 258 258 258 258 258 258 258 257 257 257 257
Wind_Speed
36 36 36 36 36 37 37 37 36 34 33 33 34 35 36 35 31 29 30 33 35 37 39 41 42 42 41 40 39 38 37 36 35 34 33 31 30 29 28 27 25 24 23 21 19 17 15 13 12 11 10 9 9 8 8 7 7 7 8 9 10 10 11 13 13 13 16 16 15 16 17 19 21 21 21 21 21 21 21 21 21 20 21 21 21
37 37 37 37 37 37 37 37 36 35 34 34 35 35 34 32 29 29 31 33 35 37 39 42 42 42 42 40 39 38 37 36 35 34 32 31 30 29 28 27 25 24 23 21 20 18 16 14 13 12 11 10 10 9 8 8 8 9 10 10 11 12 13 15 15 14 17 18 17 17 18 19 21 21 20 21 22 22 22 21 21 20 21 21 21
37 37 37 37 38 37 37 37 36 35 35 35 36 35 33 31 29 29 32 34 35 37 40 42 43 43 41 40 39 38 37 36 34 33 32 31 30 29 27 26 25 24 22 21 20 19 17 15 14 13 12 11 11 10 10 10 9 10 11 12 13 14 14 15 16 16 17 19 19 19 19 19 20 21 21 22 23 23 23 22 21 21 21 20 21
36 37 37 37 37 37 37 36 35 35 35 36 36 35 33 30 30 31 32 34 35 38 40 42 43 42 41 40 39 38 37 35 34 33 31 30 29 28 27 26 24 23 22 20 19 19 17 16 14 13 13 12 12 11 11 11 11 11 12 14 15 15 16 16 17 17 18 19 21 20 20 20 21 22 22 23 24 23 23 23 23 23 22 20 20
35 36 36 36 36 37 37 36 35 35 35 36 36 35 33 32 31 32 33 34 36 38 40 41 42 42 41 40 39 38 37 35 34 32 31 29 28 27 26 25 23 22 21 20 19 18 17 15 15 14 13 13 13 12 12 12 12 13 14 15 16 16 17 17 18 18 19 22 24 23 22 22 23 24 23 23 23 24 24 24 24 23 21 20 20
34 35 36 36 36 37 36 36 35 35 35 35 35 34 34 33 32 33 34 35 36 38 40 41 42 42 41 40 39 38 36 35 34 32 31 30 28 26 25 24 23 22 21 20 18 17 16 15 15 15 14 13 13 13 13 13 13 14 15 16 17 18 18 19 19 19 21 24 26 25 24 24 25 25 23 21 22 24 26 26 25 22 20 21 22
33 35 35 36 36 36 36 36 35 35 34 34 34 34 33 33 33 34 35 36 37 39 40 41 41 41 41 40 39 38 37 35 34 32 31 30 28 27 25 24 24 22 21 20 19 18 17 16 16 16 15 14 13 13 14 14 15 16 16 17 18 19 20 20 20 21 23 25 26 26 26 25 25 25 24 21 22 24 24 24 24 22 21 22 22
34 35 35 36 36 36 36 36 35 34 34 33 33 33 33 34 34 34 35 36 38 40 41 41 41 41 41 40 39 38 37 36 34 33 32 30 28 27 25 25 24 23 21 21 20 19 18 18 18 17 16 15 15 15 16 16 17 17 17 18 20 21 22 21 21 22 24 25 26 26 26 26 26 26 25 22 22 22 20 19 22 25 25 24 22
34 34 35 36 36 34 34 35 34 33 33 33 33 34 34 34 34 34 35 36 38 40 41 42 42 41 40 39 38 38 37 36 35 34 33 30 28 27 26 25 24 23 23 22 22 21 21 21 20 19 19 18 17 18 18 18 19 19 19 20 21 22 23 23 23 24 25 26 27 27 25 26 28 26 24 23 21 21 20 19 23 26 25 23 21
34 34 35 36 35 33 33 34 34 33 33 33 33 34 33 33 33 33 34 35 37 38 39 40 40 40 40 39 38 37 37 36 35 34 32 29 28 27 26 25 24 24 24 24 23 23 23 23 23 22 21 20 20 20 20 20 21 22 22 22 23 24 24 24 24 25 25 27 28 26 24 28 31 27 25 25 22 22 21 20 22 24 21 20 19
35 35 36 35 33 32 32 33 33 34 34 33 33 33 33 32 32 32 32 33 34 35 36 37 37 38 38 38 38 37 36 36 34 32 30 28 27 26 25 24 25 26 25 25 24 25 26 26 26 25 24 24 23 23 22 23 24 24 25 25 26 26 26 26 26 26 26 28 29 27 26 30 34 30 26 25 24 22 22 20 21 20 15 14 14
34 35 34 32 32 32 32 32 32 33 33 33 33 32 32 31 31 31 32 33 34 34 35 36 36 36 36 36 36 36 36 35 33 32 30 28 27 25 23 25 26 27 26 25 25 27 29 29 29 28 27 26 25 24 24 25 26 27 28 28 29 30 29 29 28 27 27 29 29 29 29 31 34 32 28 26 24 23 22 21 20 18 14 14 15
33 32 31 30 31 31 31 31 31 31 31 32 31 31 31 31 32 33 34 35 35 36 36 36 36 36 35 35 35 35 35 34 33 31 29 28 25 23 24 26 27 26 25 26 28 30 32 32 32 31 30 28 27 27 27 28 28 29 30 31 32 32 32 31 30 29 29 29 29 32 34 32 32 34 31 26 24 22 22 22 22 19 17 16 17
30 29 29 29 30 30 30 30 30 30 30 30 31 31 32 32 32 33 33 34 35 35 35 35 35 36 36 36 36 35 34 33 32 30 29 26 23 23 25 26 25 25 26 29 32 33 34 34 35 35 33 31 30 30 30 30 31 31 33 34 34 35 33 32 30 29 29 30 31 35 37 34 33 35 33 28 25 25 25 26 25 22 20 19 21
27 27 27 28 29 29 29 29 29 29 29 29 30 30 31 31 31 31 32 33 34 34 34 35 35 35 35 35 35 34 33 32 31 29 27 23 21 23 25 25 25 26 30 33 35 36 36 37 38 38 36 35 33 32 32 32 33 34 35 36 37 37 36 35 33 32 32 32 35 38 40 38 36 36 35 32 31 30 27 27 27 26 23 24 26
25 25 26 27 27 28 28 28 28 28 28 28 28 28 29 29 29 29 29 29 30 30 30 31 31 31 32 32 32 32 31 30 29 27 23 20 21 24 25 25 27 31 34 36 37 38 38 39 40 40 39 38 36 35 34 33 34 36 37 38 38 39 40 39 36 35 35 35 38 40 41 42 40 39 38 35 33 32 28 28 28 26 24 24 25
24 24 25 26 27 27 28 28 27 27 28 28 27 27 28 28 28 28 27 27 27 27 28 28 28 29 29 30 30 31 30 29 26 22 20 19 22 25 26 28 31 34 35 37 38 39 40 42 43 42 41 40 38 37 35 34 36 37 37 38 39 40 43 41 38 37 36 37 39 40 41 42 40 37 34 30 28 26 24 27 29 27 23 20 18
23 24 24 25 26 26 27 27 27 27 28 28 28 28 27 27 27 26 26 26 26 27 27 27 26 27 28 29 29 29 27 25 21 19 19 21 24 27 28 30 33 35 37 38 40 41 43 44 42 41 41 40 39 37 35 34 34 36 37 37 38 41 45 43 40 39 38 37 38 39 39 40 37 33 31 29 25 24 26 30 30 25 22 19 16
22 23 23 23 24 25 25 26 26 27 27 27 27 27 26 26 25 24 24 24 24 24 24 24 24 24 24 25 24 23 22 20 19 19 21 23 26 29 30 31 33 35 37 38 39 40 42 42 40 39 39 39 37 36 35 33 33 35 36 35 36 42 46 43 40 40 39 37 37 37 36 37 35 33 34 32 27 25 29 33 31 25 22 20 18
21 21 21 22 23 24 24 25 26 26 26 26 25 24 24 24 23 22 22 21 21 21 21 21 21 20 20 20 20 20 20 20 21 21 23 25 28 30 31 32 34 35 36 36 37 37 38 38 37 36 36 36 35 35 34 34 34 35 35 34 37 42 44 41 39 38 37 37 37 37 36 36 33 31 32 32 29 27 29 32 33 30 26 23 20
19 20 20 21 22 23 24 24 24 25 24 24 23 22 22 21 21 21 20 20 19 19 19 20 20 19 19 20 20 21 22 22 22 22 24 27 29 30 31 32 34 34 34 35 34 34 33 33 34 34 34 33 33 33 33 32 31 32 33 35 38 40 38 37 37 36 35 35 34 33 34 34 33 30 29 30 31 30 31 33 35 36 33 29 23
18 19 20 21 22 22 23 23 23 22 22 21 21 21 20 19 19 20 20 20 19 19 19 19 19 19 19 20 20 20 20 20 21 23 25 27 29 29 30 32 32 32 33 33 33 32 32 32 33 33 32 32 32 31 31 30 28 28 32 34 35 33 32 32 33 32 31 30 28 28 29 29 28 28 28 29 31 31 32 33 35 37 37 34 28
18 19 20 20 21 22 22 22 21 21 20 20 20 21 20 19 19 19 19 19 19 19 19 18 18 17 17 17 17 17 18 19 21 23 24 26 27 28 28 29 29 29 30 32 32 31 31 31 31 31 30 30 29 29 28 26 25 26 28 29 29 29 29 30 30 28 26 26 25 26 26 25 24 25 27 29 31 32 32 33 34 36 35 32 28
18 19 20 20 21 21 21 21 21 20 20 20 20 20 20 20 19 19 18 18 18 17 17 16 15 15 15 16 16 16 17 19 20 21 22 23 24 25 26 27 27 27 29 31 31 31 31 30 29 29 28 26 25 24 23 23 24 25 26 26 26 26 27 27 27 26 25 25 24 24 25 25 24 26 29 29 28 29 31 32 32 32 31 28 25
20 20 20 21 21 21 21 21 20 20 20 20 20 20 20 20 20 18 17 16 16 15 15 14 15 15 15 16 16 16 16 17 17 17 18 18 19 20 21 22 22 23 25 27 27 27 27 25 24 22 21 20 20 20 21 22 22 22 23 24 24 25 25 25 24 24 24 24 24 25 28 29 27 27 28 27 26 26 28 28 28 27 26 24 23
20 20 20 20 21 21 21 20 20 20 19 19 17 17 17 17 17 16 16 15 14 14 15 15 15 15 15 15 15 14 14 13 13 13 13 14 14 14 15 16 17 18 21 22 23 22 21 20 20 20 20 20 21 21 23 24 22 21 22 22 22 23 24 24 24 24 25 25 26 27 29 30 29 28 27 25 25 26 26 25 25 25 23 22 22
20 20 20 20 20 20 21 20 19 19 17 16 15 13 14 15 15 15 16 16 16 16 15 15 15 15 15 14 13 12 12 11 11 10 10 11 11 11 12 14 15 16 18 19 19 19 19 20 20 20 20 19 18 18 18 18 17 17 16 16 16 18 19 21 23 24 24 24 25 26 28 29 30 29 28 26 26 26 25 24 24 24 22 20 20
21 21 20 20 20 19 19 19 19 18 16 15 14 14 14 14 14 14 14 13 14 15 15 15 14 13 12 11 10 10 9 9 9 8 9 9 10 10 11 12 13 14 15 15 15 16 16 17 17 16 16 16 16 15 15 15 15 14 13 12 12 14 16 18 20 21 22 23 25 27 29 30 30 29 28 27 27 27 26 24 24 23 20 18 18
22 21 21 21 20 20 19 19 20 19 18 17 15 13 12 12 12 11 11 11 10 10 11 11 10 9 8 8 8 8 8 8 8 8 8 7 7 8 8 8 8 9 10 9 10 11 11 12 13 14 15 16 16 16 16 16 16 16 15 14 14 15 16 17 19 21 22 23 25 26 27 28 28 28 28 28 28 27 26 24 24 22 19 18 19
23 22 22 22 21 21 21 21 20 21 21 20 18 15 12 11 10 10 10 10 9 8 8 8 8 8 8 7 7 7 7 6 6 6 5 5 5 5 5 5 7 8 8 8 9 11 12 13 14 15 15 15 14 13 13 13 14 14 14 13 13 13 14 16 17 19 21 22 23 24 24 24 25 26 26 27 28 27 26 25 24 22 20 20 21
24 23 23 23 22 22 23 22 22 22 22 22 21 20 17 13 10 9 9 9 8 7 7 7 7 7 7 7 7 7 5 5 4 4 3 3 4 4 4 5 6 7 8 8 10 12 13 13 12 11 9 8 8 8 9 9 10 11 12 11 10 10 12 13 13 15 17 19 21 23 24 24 24 25 25 25 25 25 25 24 23 22 22 21 21
26 25 24 23 22 22 23 24 24 24 23 22 22 22 22 20 16 11 9 8 7 7 6 6 7 7 6 6 6 6 5 4 5 5 5 5 4 4 3 2 3 4 5 7 8 7 7 6 5 4 4 5 6 7 8 9 11 12 14 14 12 12 13 14 14 16 17 17 17 18 20 22 24 25 24 24 24 23 24 23 23 23 22 21 21
26 25 25 24 24 23 24 25 25 25 25 24 22 21 21 22 21 18 14 12 11 10 10 9 9 9 8 8 8 9 9 9 9 8 8 6 5 5 5 4 5 7 7 7 8 7 5 5 5 5 5 6 7 8 10 11 12 14 15 15 14 15 16 17 17 18 19 17 16 16 17 18 21 23 24 24 24 23 22 22 22 21 21 20 20
24 25 25 25 25 24 24 24 24 24 23 22 22 21 20 20 23 24 22 20 18 16 15 15 14 13 12 12 11 11 10 9 8 7 7 7 7 8 8 8 8 9 9 8 8 8 7 7 7 7 8 8 9 10 11 12 13 14 15 15 16 16 17 17 17 17 16 16 16 15 15 16 18 20 23 23 23 22 22 21 21 20 19 19 18
23 23 23 23 23 23 23 22 22 22 22 21 21 21 20 19 20 22 22 22 21 20 18 16 15 13 12 11 10 8 7 7 7 7 8 8 8 9 10 9 10 10 9 8 7 8 8 8 8 9 10 10 10 11 11 11 12 13 13 14 15 15 16 16 16 15 14 14 14 14 15 15 16 18 21 22 22 22 22 21 20 19 18 17 17
22 22 22 21 21 21 21 21 20 20 21 20 20 19 19 19 19 18 17 18 20 20 18 16 14 12 11 10 8 6 6 6 7 7 7 7 6 6 6 6 6 6 6 6 6 6 6 7 7 7 8 8 9 9 10 10 11 11 12 12 13 14 15 15 14 14 14 15 15 15 16 16 16 17 18 20 20 20 21 20 19 18 17 17 16
21 22 22 21 20 21 20 20 19 19 19 19 19 19 19 18 18 17 16 17 17 17 16 15 13 11 10 10 8 7 6 6 5 5 5 4 4 3 3 3 3 3 4 4 4 4 5 5 5 6 6 6 7 8 9 9 10 11 12 12 13 14 14 13 13 13 15 16 16 17 17 17 17 16 16 16 17 18 18 18 17 16 15 15 14
20 20 21 20 20 20 20 20 19 19 19 18 18 18 18 18 17 16 16 16 16 15 15 14 12 11 10 9 9 8 7 6 5 5 4 4 3 2 1 1 2 2 2 2 2 2 3 4 4 4 5 5 6 7 8 9 9 10 12 12 12 13 13 13 13 13 14 15 16 17 17 18 17 17 16 15 15 16 16 16 16 15 14 14 13
19 19 20 20 19 19 19 20 19 19 18 18 17 16 16 17 16 16 15 15 15 14 13 13 11 10 10 9 8 8 7 6 5 5 4 3 2 1 1 1 1 1 1 1 1 1 2 3 3 4 5 5 6 7 8 8 9 10 11 12 12 13 13 13 14 14 15 16 16 16 17 17 17 16 15 15 14 14 14 14 14 13 13 13 14
20 20 19 19 19 18 18 18 18 17 17 16 16 15 15 15 15 14 14 14 14 13 12 11 10 9 8 7 7 7 6 5 5 4 3 2 1 1 1 1 1 1 1 2 2 2 3 4 4 5 5 6 6 7 8 9 9 10 10 11 12 13 14 14 15 15 15 16 16 16 16 16 15 15 14 13 13 12 12 13 13 12 12 13 14
20 20 19 18 18 17 17 16 16 15 15 14 14 14 14 13 13 13 13 12 12 12 11 10 9 8 5 3 4 5 4 3 3 3 2 2 2 2 2 2 3 3 3 4 4 4 5 5 6 6 7 7 8 8 9 9 10 10 11 12 12 13 14 14 14 15 15 15 15 15 15 14 14 13 13 13 12 11 11 12 12 12 12 13 14
18 19 19 17 17 16 16 16 15 14 14 14 13 13 13 12 12 12 12 11 11 11 10 9 9 8 7 5 4 4 3 2 3 3 3 3 3 3 3 4 5 5 6 6 6 6 7 7 8 8 8 8 9 9 10 10 11 11 12 12 13 13 14 14 14 14 15 15 15 15 14 13 12 12 12 12 11 11 11 11 11 11 12 13 13
17 17 17 17 16 15 15 15 15 15 14 14 13 12 12 12 11 11 10 10 9 9 8 8 8 8 8 8 7 6 4 3 3 3 3 4 4 4 5 6 7 8 8 9 9 9 9 9 9 10 10 10 10 10 11 11 11 12 12 13 14 14 14 14 14 14 14 15 15 15 14 13 12 12 12 11 11 10 10 11 11 12 12 13 14
15 16 17 16 16 15 15 15 15 14 14 13 12 12 11 11 10 10 9 8 8 7 7 7 7 8 9 9 8 7 5 5 5 5 5 6 6 6 7 8 9 9 10 10 11 11 11 11 10 11 11 11 11 11 11 11 11 12 12 13 14 14 14 14 14 14 15 16 16 15 14 14 13 13 13 12 11 11 11 11 12 12 13 13 14
15 16 17 17 16 16 15 14 13 13 13 12 12 11 10 9 9 8 7 6 6 6 6 7 8 8 8 8 8 7 7 6 6 7 7 8 8 8 9 10 10 11 11 11 12 13 13 12 12 12 12 12 12 12 12 12 12 13 13 14 15 15 14 14 14 14 15 16 16 16 16 15 15 14 14 13 12 12 13 13 13 13 14 14 14
14 15 15 16 15 15 14 13 12 11 11 10 10 9 9 8 7 6 6 6 6 6 7 8 8 8 8 8 8 7 7 8 8 9 10 10 10 10 11 11 12 12 12 12 13 13 14 14 14 14 14 14 13 13 13 13 13 14 14 15 15 15 14 14 14 14 14 15 16 17 16 16 16 15 15 15 14 14 14 14 14 14 14 14 14
13 13 13 13 13 13 12 12 11 10 10 9 8 7 7 6 6 5 6 6 6 7 8 8 8 8 8 8 8 8 9 9 10 11 12 12 12 11 12 13 13 13 14 14 14 14 15 15 15 15 15 15 15 15 14 14 14 14 15 15 15 16 15 14 14 14 14 15 16 17 17 17 16 16 16 15 15 15 15 15 15 14 14 14 14
12 12 12 11 11 11 11 10 10 9 9 8 7 6 6 6 6 6 6 7 7 7 8 8 8 9 9 8 9 10 10 11 12 13 13 13 13 13 13 14 14 15 15 16 15 15 15 16 16 16 16 16 16 16 15 15 15 15 15 15 15 15 15 15 15 15 14 15 16 16 16 16 16 16 15 15 15 15 15 15 14 14 14 14 14
11 11 10 10 9 9 9 9 8 8 7 7 6 6 6 6 6 6 6 7 8 8 9 9 9 9 10 10 10 11 12 13 14 15 15 15 15 15 15 16 16 16 17 17 16 16 16 16 16 16 16 16 17 17 16 16 16 15 15 15 15 15 15 15 14 14 14 14 15 15 15 16 15 15 14 14 13 13 14 14 13 13 13 13 13
10 9 9 9 9 8 8 8 7 7 6 6 6 6 6 6 7 7 7 8 9 9 10 10 10 10 11 12 12 13 14 15 16 16 16 17 17 16 17 17 17 17 17 17 17 16 16 16 16 17 17 17 17 17 17 17 17 16 15 15 15 15 15 15 14 13 13 13 14 14 13 13 13 13 12 11 11 11 12 11 11 11 11 11 11
9 8 8 8 7 7 7 7 6 6 6 5 5 6 6 7 7 8 9 10 10 10 11 11 12 12 13 13 14 15 16 17 18 18 18 18 18 18 18 18 18 18 17 17 17 16 16 16 17 17 17 17 17 17 17 17 16 16 15 15 14 14 15 14 14 13 12 12 12 12 12 12 12 12 12 11 11 11 11 11 11 11 10 10 10
Wind_Direction
210 212 213 214 215 215 215 216 217 218 219 220 220 217 212 212 216 223 225 224 219 213 208 204 202 200 196 194 192 191 190 189 189 189 189 189 189 188 187 185 184 183 182 183 185 185 186 185 184 186 192 202 214 223 231 240 249 250 251 251 248 246 239 229 231 250 266 272 274 275 277 278 280 282 285 287 289 292 297 300 303 305 309 314 319
211 213 214 215 215 215 216 216 216 218 218 219 218 214 214 217 222 228 228 223 218 212 207 203 201 198 196 194 192 191 191 191 190 190 191 191 190 190 190 189 188 188 187 188 189 189 190 191 190 191 195 204 214 223 231 237 244 250 252 254 255 252 246 240 239 249 267 277 280 280 280 280 282 285 289 290 294 297 299 301 303 305 310 314 317
212 213 214 215 215 215 215 215 216 217 217 217 216 215 219 223 226 230 227 221 216 210 206 202 200 198 196 194 193 192 192 192 192 193 194 195 194 193 194 193 192 192 193 195 195 194 194 195 195 196 198 205 214 222 230 236 240 248 253 255 256 256 253 248 247 251 263 276 281 281 281 282 284 288 292 294 296 300 301 303 306 307 312 314 314
213 212 212 213 214 214 215 215 216 217 216 216 216 218 222 225 227 228 224 219 214 208 204 202 200 198 196 195 194 194 194 193 194 195 196 199 199 197 197 197 197 198 199 201 201 200 200 199 199 200 202 208 216 223 229 235 241 246 251 255 256 257 257 255 255 256 260 269 276 279 280 283 285 289 293 294 297 298 300 303 307 309 313 314 312
212 211 211 212 213 213 214 215 216 217 217 217 218 219 220 222 224 223 219 216 212 207 203 201 199 198 197 197 196 195 196 196 196 197 198 201 203 202 202 201 201 202 204 206 205 205 206 206 205 206 208 213 220 228 233 238 243 247 251 255 257 260 260 259 258 258 259 263 271 277 279 282 286 290 292 293 296 299 302 305 307 309 312 312 311
212 211 210 210 211 212 213 214 216 218 219 219 219 220 221 221 220 219 217 215 211 206 203 200 199 199 198 198 198 197 197 198 198 200 201 202 204 205 206 207 206 207 207 209 210 211 211 212 212 213 217 222 228 235 240 242 245 250 254 257 259 260 261 261 260 260 260 263 269 274 278 281 285 288 291 292 294 299 305 309 309 310 312 311 311
212 211 210 210 211 212 212 214 217 219 220 220 221 221 222 222 220 218 216 213 210 205 202 200 200 200 200 199 199 199 199 199 201 202 204 205 205 207 209 210 210 210 211 212 213 214 215 216 219 222 226 232 238 243 246 247 249 253 257 259 260 259 260 262 261 261 262 264 267 271 276 280 282 284 288 290 291 297 304 308 308 308 310 310 309
212 211 210 211 212 212 212 215 219 220 221 221 221 221 221 221 219 217 214 211 209 206 203 201 200 200 201 201 200 201 201 201 202 204 206 207 207 209 212 213 213 213 215 216 217 217 219 221 223 228 234 239 244 248 250 252 253 256 258 259 258 258 260 261 261 261 262 263 266 271 275 278 280 282 285 288 291 296 301 302 299 301 306 308 305
212 210 211 212 213 212 212 214 217 220 220 220 219 220 219 218 216 215 213 211 209 206 204 203 201 200 201 201 201 201 202 203 204 206 208 208 209 212 214 215 216 218 219 220 220 221 224 225 228 232 237 241 244 248 251 254 256 257 259 260 259 259 260 260 259 261 262 263 266 270 272 275 278 280 282 285 289 294 297 295 294 298 304 304 300
211 210 212 213 213 212 212 213 214 216 218 218 217 217 216 215 213 213 212 211 209 207 205 204 203 202 201 201 201 201 202 204 207 209 210 211 212 215 216 218 220 222 224 224 224 228 230 231 233 235 238 241 243 246 250 253 256 259 260 261 261 260 259 258 258 260 261 262 265 268 268 273 277 278 281 286 290 291 291 290 292 296 301 301 298
210 211 212 213 211 210 211 211 210 212 215 215 215 214 212 211 211 211 210 209 208 207 205 204 204 204 203 202 202 202 203 206 208 209 211 214 216 217 219 222 224 226 227 228 231 236 238 238 238 238 240 243 244 246 250 254 257 260 261 261 262 262 259 258 259 261 261 261 265 266 264 270 278 281 281 285 287 286 286 286 286 288 290 291 292
210 211 212 211 209 209 209 208 207 208 211 211 211 210 209 208 208 208 208 207 207 207 206 206 206 206 205 204 203 204 205 207 209 210 213 215 217 220 224 228 229 229 231 235 240 244 244 243 242 242 244 246 247 249 251 254 258 261 262 263 263 263 262 260 261 262 262 263 265 267 265 268 276 280 280 281 283 282 283 282 278 276 273 272 276
209 210 210 208 207 207 207 206 205 205 206 207 207 207 206 206 208 209 209 208 207 207 206 206 206 205 206 205 205 206 207 208 210 212 214 216 218 223 230 232 233 234 238 244 248 249 248 246 246 247 248 248 249 250 252 255 258 260 262 262 262 263 263 263 264 265 266 264 262 266 270 269 273 280 282 280 279 277 277 277 275 270 265 263 269
206 207 207 206 206 205 205 204 203 203 203 204 205 206 206 207 208 209 208 206 205 205 206 206 206 207 207 207 207 208 208 210 211 213 215 216 220 230 235 235 236 241 247 251 253 253 252 250 250 251 252 252 251 251 253 255 258 260 261 260 261 262 261 261 262 264 266 265 264 269 275 273 273 280 282 277 274 273 274 276 275 270 263 263 270
203 204 203 204 204 203 202 201 200 200 201 202 203 203 203 204 205 207 206 205 206 206 206 206 206 207 208 208 208 209 209 211 213 214 214 218 228 237 237 238 243 250 254 255 255 255 254 253 253 254 255 255 254 254 254 256 259 261 262 261 263 263 261 260 260 261 264 265 267 272 277 277 275 277 279 277 275 274 275 276 274 269 266 268 271
200 200 201 202 201 200 199 197 197 198 198 199 199 199 201 202 204 205 205 205 206 206 206 207 207 207 207 208 208 209 211 213 213 213 217 226 236 238 238 244 252 255 257 257 257 257 256 255 255 256 256 257 256 256 256 257 259 261 262 263 265 265 265 264 264 264 265 266 267 271 274 276 275 275 277 277 275 276 275 271 267 262 261 265 268
197 198 199 200 199 199 197 195 194 195 196 196 197 199 201 203 204 204 203 202 204 206 208 209 210 210 209 209 209 211 212 212 211 216 227 237 238 236 240 249 255 257 258 259 258 258 258 257 257 257 257 258 257 257 257 257 259 260 262 265 267 268 269 270 269 269 269 268 268 270 271 273 272 271 273 270 268 271 267 259 256 252 249 255 263
195 196 198 199 198 197 196 195 194 195 196 197 199 200 201 202 204 205 205 205 207 209 210 210 211 212 212 212 212 213 211 209 214 228 239 240 237 238 243 251 255 257 258 259 259 259 259 259 259 259 259 260 260 259 259 258 260 261 263 266 268 269 272 274 275 276 274 272 272 272 272 273 271 268 266 262 258 257 253 251 251 244 239 245 257
194 196 196 197 196 195 195 196 196 197 197 198 199 199 199 201 203 205 206 208 209 208 207 207 208 210 213 215 215 214 214 220 231 240 242 239 238 239 244 251 254 254 256 258 259 259 260 260 261 261 263 264 263 263 263 262 262 263 265 266 266 269 273 276 278 280 280 279 279 278 277 277 274 270 267 263 256 250 251 253 251 242 239 247 256
194 195 194 193 193 194 195 196 197 198 198 197 197 198 198 199 200 201 202 204 205 205 206 207 209 210 213 215 217 222 230 239 245 245 243 241 240 242 247 251 252 253 256 258 259 260 262 263 265 266 268 269 270 270 270 268 267 267 266 262 262 269 277 280 280 282 284 284 284 284 283 282 279 273 268 263 256 250 250 250 249 247 248 252 254
189 189 189 189 189 191 193 195 196 197 197 195 193 194 197 198 197 196 196 196 198 201 202 204 206 208 211 216 223 232 240 246 247 246 245 243 243 246 250 251 252 255 258 259 260 261 264 266 269 272 273 274 275 275 274 273 271 268 265 263 267 274 279 280 281 283 283 282 282 282 282 281 278 274 269 264 259 255 251 249 251 254 254 254 254
183 183 184 184 186 187 189 191 192 192 192 191 189 187 190 193 192 191 191 191 192 195 198 202 206 211 217 224 231 237 242 246 247 247 247 247 249 251 252 252 254 256 257 259 261 264 267 270 274 276 278 278 279 279 279 277 271 265 264 267 271 275 277 277 279 279 275 273 272 271 273 275 272 268 266 263 260 259 256 255 256 257 256 255 255
178 178 180 181 182 183 184 186 187 186 186 186 184 182 182 184 185 186 187 189 191 195 201 207 212 218 225 232 238 243 247 249 250 251 251 251 251 250 249 250 252 253 256 261 265 268 271 275 277 279 281 282 283 282 280 275 269 264 266 269 271 273 274 275 276 276 275 273 270 268 271 272 268 264 264 265 263 259 258 258 258 256 255 255 257
173 174 175 176 177 178 179 180 182 181 180 181 180 178 178 179 182 185 189 193 195 200 205 210 215 221 229 236 241 246 248 250 251 252 252 250 250 249 250 251 252 254 258 263 267 271 274 277 280 284 286 287 286 283 278 273 270 269 270 272 273 274 275 275 275 276 276 276 275 275 277 276 270 266 267 268 265 259 258 260 259 255 253 254 261
168 168 169 170 171 171 172 174 176 176 176 177 177 176 177 179 182 186 191 195 197 200 205 211 217 223 229 236 240 243 245 247 248 249 250 251 251 252 254 256 257 258 259 262 266 270 274 278 281 282 282 281 280 278 276 275 276 277 277 276 275 275 276 277 279 279 277 277 278 281 284 284 280 275 273 271 267 262 262 262 259 253 251 257 267
160 160 162 164 166 167 167 167 170 172 172 174 177 179 181 183 185 187 191 195 200 204 208 212 217 222 227 233 237 239 242 245 246 248 250 253 255 255 255 256 256 255 256 259 263 266 270 273 274 273 274 275 277 279 280 281 283 284 283 281 279 277 275 274 274 274 273 273 274 277 281 285 286 283 280 277 272 269 267 262 256 251 253 262 269
156 156 158 160 162 165 165 163 164 167 170 174 179 182 184 187 188 188 191 195 198 203 207 210 213 217 224 231 234 236 241 246 250 253 254 254 256 256 254 254 255 256 258 262 265 269 273 275 277 281 284 288 292 296 297 299 300 297 291 287 285 282 278 275 273 273 273 273 274 276 279 282 283 283 282 279 276 274 271 262 253 252 257 264 266
157 157 158 159 161 165 166 165 165 166 169 175 178 178 181 186 188 189 192 196 199 203 208 212 216 220 225 228 229 232 240 247 252 254 254 254 254 253 254 256 257 259 263 268 272 277 281 284 289 295 301 306 311 317 321 325 325 321 314 308 302 296 292 288 281 279 281 282 281 281 281 281 281 280 280 278 277 276 271 260 253 254 258 258 256
158 157 158 160 162 165 167 168 169 167 166 167 169 170 176 184 187 189 192 195 201 206 209 212 214 217 219 220 224 230 238 246 250 250 248 249 250 250 254 261 264 267 276 285 289 292 296 301 306 310 313 317 319 321 324 325 323 322 320 317 312 307 302 296 289 287 288 286 283 283 283 283 282 282 281 279 278 276 270 260 254 256 255 249 250
156 156 160 162 163 165 166 166 167 166 163 161 158 154 157 171 180 183 183 185 190 196 200 204 205 206 209 212 215 222 227 228 230 233 233 236 242 251 266 282 286 289 297 299 291 287 287 291 297 301 305 310 314 318 324 325 322 323 324 323 321 318 312 308 304 300 298 294 289 287 286 284 283 282 281 280 279 277 272 264 257 254 250 245 248
155 156 161 163 164 165 164 162 164 164 162 162 157 148 142 143 149 159 164 165 170 178 184 188 188 188 194 194 191 193 200 203 205 207 206 212 223 242 269 286 282 281 287 283 273 273 276 280 287 294 301 310 319 325 329 330 329 330 331 331 334 334 329 327 326 320 313 306 299 294 291 287 285 283 280 279 278 276 273 268 259 252 249 245 248
156 157 161 162 162 164 162 161 163 162 161 162 160 152 143 133 125 126 136 140 142 150 158 165 167 166 168 174 174 166 152 146 149 148 151 161 169 172 173 198 233 239 251 263 267 270 274 277 286 301 309 318 326 325 325 327 326 327 328 328 330 330 327 325 324 320 317 315 309 302 296 292 290 287 283 280 277 273 271 267 258 250 248 247 249
157 157 160 160 160 163 163 163 164 164 162 162 162 159 154 144 135 129 125 122 125 128 127 127 130 131 131 131 131 128 130 138 147 152 161 174 188 192 189 202 240 253 252 255 262 269 276 282 294 305 310 317 321 319 320 321 320 320 321 321 319 319 318 317 316 315 315 315 313 308 304 301 298 294 290 286 280 275 270 266 260 253 248 248 251
158 158 159 159 160 163 164 164 164 165 165 166 165 164 162 157 150 145 141 138 137 135 132 131 130 128 128 129 130 133 141 156 173 186 199 210 222 232 232 234 250 264 265 257 254 259 268 278 285 292 299 305 307 308 312 315 316 318 318 316 317 319 319 320 323 325 324 322 319 316 313 311 307 302 298 292 286 279 273 268 263 255 249 248 253
157 156 158 159 159 160 161 163 164 165 166 168 169 168 166 164 161 158 156 155 153 149 146 147 147 148 149 147 144 150 165 183 201 218 231 237 241 249 253 248 246 254 260 259 255 256 262 270 277 286 295 302 306 309 315 319 320 322 321 320 322 324 326 330 335 337 335 329 324 321 318 315 314 312 307 300 291 284 279 274 267 260 254 253 256
156 155 157 160 160 159 160 162 164 165 167 168 169 170 169 168 168 166 165 165 163 160 159 161 163 166 170 165 153 149 169 197 216 231 246 255 254 256 258 249 236 236 243 250 257 262 268 275 283 290 297 303 308 313 318 323 326 327 326 327 328 329 332 338 340 335 331 330 327 325 324 322 322 323 318 309 300 292 285 280 275 269 265 263 263
160 159 159 162 163 161 161 162 163 164 165 165 166 168 169 170 171 170 168 168 168 167 168 171 172 172 175 176 172 168 180 206 229 247 266 283 291 283 266 244 228 222 223 230 241 257 271 280 289 295 300 307 313 318 325 330 330 330 330 330 330 330 331 332 330 326 327 329 329 329 330 328 326 327 325 319 311 304 296 289 284 279 275 273 270
162 161 161 162 164 163 162 161 162 163 163 163 164 165 165 166 169 170 169 169 171 171 172 175 178 178 177 182 189 194 204 224 250 271 284 296 306 310 277 206 207 207 204 206 210 230 257 274 287 296 305 314 320 322 327 329 328 327 327 327 327 325 322 319 318 319 322 325 326 328 329 329 329 327 325 321 317 312 306 300 293 288 284 280 277
160 160 161 163 164 165 164 162 162 162 160 160 161 162 163 163 164 166 168 169 171 173 174 176 181 185 185 187 194 204 214 232 251 266 272 277 282 271 209 190 202 199 209 231 244 261 276 287 295 301 306 314 318 319 321 324 325 325 325 325 326 326 324 319 317 316 317 317 319 321 323 325 327 326 324 321 319 317 312 305 299 294 291 290 289
160 160 162 164 163 163 163 161 160 159 159 159 160 161 162 163 163 165 167 168 168 170 172 173 174 178 183 192 201 207 215 227 238 241 240 236 234 238 251 273 287 290 294 299 302 307 306 304 304 305 306 307 310 313 315 318 322 324 325 325 326 327 328 326 322 320 318 315 315 317 319 320 322 322 319 318 318 315 310 306 302 298 296 297 297
161 159 160 162 161 160 159 157 156 157 157 158 159 159 159 159 160 162 164 165 166 167 168 168 171 171 166 175 208 217 214 210 212 216 219 228 239 255 274 285 294 298 302 305 304 305 306 305 303 304 305 305 308 311 313 315 318 319 321 323 324 324 327 328 327 325 323 319 316 317 318 319 319 318 316 315 315 312 309 306 303 300 299 298 296
162 159 157 158 159 159 158 155 154 154 154 154 154 154 155 156 157 159 162 163 166 168 168 168 173 171 155 153 192 221 223 206 211 220 229 241 258 275 285 289 295 297 297 299 300 299 299 300 299 300 303 306 307 308 309 311 312 313 315 317 319 321 323 325 326 326 323 320 319 319 317 317 317 315 315 316 316 313 310 307 303 301 298 297 296
161 158 155 156 158 158 156 154 153 153 153 151 150 151 153 156 157 160 163 164 166 171 175 177 184 188 185 189 212 235 247 241 238 243 251 257 268 279 283 285 289 291 291 292 293 292 293 295 297 298 300 302 303 303 305 306 307 309 312 314 314 316 318 319 321 322 320 318 318 317 313 311 311 309 309 312 312 309 307 303 300 299 298 297 298
160 158 155 155 154 154 153 153 153 152 151 151 152 154 156 159 160 160 163 166 168 176 187 194 201 207 211 219 232 243 247 248 253 259 264 266 269 272 275 277 280 282 284 287 289 290 291 293 293 294 296 298 298 298 300 301 303 305 308 309 309 311 313 313 314 315 315 314 315 313 310 307 305 303 302 303 303 301 301 299 299 300 299 298 298
161 159 157 154 153 152 151 151 152 153 154 154 156 157 156 159 161 161 165 173 182 193 203 210 213 216 219 226 234 240 247 255 260 263 266 269 270 270 271 272 274 276 279 283 284 286 289 291 291 293 294 294 295 295 297 299 301 302 303 304 304 306 309 308 306 307 309 309 309 308 306 304 302 301 301 301 299 298 299 299 299 299 299 298 297
159 158 156 154 153 152 151 151 152 154 154 154 156 156 157 161 167 172 181 192 200 207 211 213 216 220 225 231 239 245 252 258 262 266 269 271 272 273 273 274 275 276 279 280 281 283 287 289 290 292 294 294 294 295 296 297 298 298 298 299 299 300 302 302 300 301 302 303 303 302 300 299 299 299 299 299 298 297 297 298 298 297 297 296 296
153 152 153 153 152 151 151 153 155 155 155 156 157 160 165 174 182 191 200 204 208 212 216 219 223 227 231 237 243 250 256 261 265 269 271 273 274 276 276 276 278 279 280 281 281 283 285 287 289 291 293 294 294 295 296 297 297 297 296 296 295 296 296 295 294 295 297 296 296 296 295 294 295 295 295 295 295 295 295 296 296 296 296 296 295
152 151 151 151 152 153 155 157 158 160 161 164 168 175 183 191 198 203 208 213 216 219 224 229 233 236 241 246 251 256 262 266 268 271 273 276 278 279 278 279 280 281 282 283 284 283 285 286 288 289 290 292 293 295 296 296 296 295 295 295 294 294 293 291 291 292 291 289 289 290 290 290 290 291 291 291 291 291 292 293 293 294 295 294 295
152 152 152 153 154 156 158 159 163 166 169 172 180 188 194 201 208 212 216 222 227 231 235 239 242 246 251 255 259 264 268 271 273 276 278 279 280 281 281 281 282 283 283 285 285 285 285 285 286 287 289 290 291 293 294 294 295 295 295 296 295 294 292 291 289 289 287 285 284 284 284 285 286 287 288 289 289 289 290 290 292 294 293 292 293
153 153 155 157 158 159 162 165 169 175 178 182 190 198 203 210 218 222 227 233 237 241 245 248 251 255 258 261 264 269 272 274 277 279 281 282 283 283 283 282 283 283 285 285 286 285 285 285 286 287 288 288 289 291 291 292 293 293 294 295 296 296 295 292 289 288 286 283 281 280 280 281 283 285 287 290 290 290 291 293 294 295 294 292 293
156 155 157 160 160 162 168 173 176 182 188 194 201 209 217 225 230 233 238 242 247 251 255 257 260 263 265 268 271 273 275 278 279 281 282 283 284 284 283 283 283 284 284 284 285 285 285 285 285 286 287 287 288 288 289 290 291 291 293 294 296 296 295 293 290 287 282 276 275 277 278 280 283 285 287 289 290 290 292 294 293 293 294 293 292